Powrót do katalogu

EXPLORER 16

AktywnyNaukaLEO
NORAD 506·PAYLOAD·🇺🇸 United States

Wystrzelony Dec 16, 1962 z Wallops Flight Facility

Loading…

Następne Przeloty (najbliższe 24 godziny)

TLE

ŚwieżeSource: Space-Track

Epoka: Sep 14, 2026, 12:17 UTC

1 00506U 62070A   26257.51189336 -.00000074  00000-0  45208-4 0  9999
2 00506  52.0018  87.3727 0275335 212.2145 146.1697 13.85802409221149

Śledź EXPLORER 16 w czasie rzeczywistym z AllMySat

Download on the App Store